Weather History for KRDK - February, 2013

Change the Weather History Date:

Monday, February 11, 2013

  Actual Average Record
Temperature  
Mean Temperature 32 °F -  
Max Temperature 39 °F 35 °F 69 °F (1951)
Min Temperature 24 °F 14 °F -23 °F (1981)
Degree Days  
Heating Degree Days 34    
Moisture  
Dew Point 22 °F    
Average Humidity 68    
Maximum Humidity 86    
Minimum Humidity 56    
Precipitation  
Precipitation 0.00 in - - ()
Sea Level Pressure  
Sea Level Pressure 30.04 in    
Wind  
Wind Speed 16 mph (WNW)    
Max Wind Speed 28 mph    
Max Gust Speed 38 mph    
Visibility 10 miles    
Events      
Averages and records for this station are not official NWS values.
T = Trace of Precipitation, MM = Missing Value Source: NWS Daily Summary

Daily Weather History Graph

Daily Weather History Graph

Search for Another Location

Airport or City:

Trip Planner

Search our weather history database for the weather conditions in past years. The results will help you decide how hot, cold, wet, or windy it might be!

Date:

Astronomy

Feb. 11, 2013 Rise Set
Actual Time 7:20 AM CST 5:50 PM CST
Civil Twilight 6:51 AM CST 6:19 PM CST
Nautical Twilight 6:19 AM CST 6:51 PM CST
Astronomical Twilight 5:47 AM CST 7:23 PM CST
Moon 7:44 AM CST (2/11) 7:50 PM CST (2/11)
Length of Visible Light 11h 27m
Length of Day
10h 30m
Waxing Crescent, 3% of the Moon is Illuminated
Feb 11
Waxing Crescent
Feb 17
First Quarter
Feb 25
Full
Mar 4
Last Quarter
Mar 11
New

Hourly Weather History & Observations

Time (CST) Temp. Windchill Dew Point Humidity Pressure Visibility Wind Dir Wind Speed Gust Speed Precip Events Conditions
12:15 AM 32.0 °F 18.6 °F 21.2 °F 64% 29.79 in 10.0 mi West 25.3 mph 38.0 mph N/A   Overcast
12:35 AM 32.0 °F 19.2 °F 21.2 °F 64% 29.80 in 10.0 mi WNW 23.0 mph 32.2 mph N/A   Overcast
12:55 AM 32.0 °F 18.1 °F 21.2 °F 64% 29.81 in 10.0 mi West 27.6 mph 38.0 mph N/A   Overcast
1:15 AM 30.2 °F 17.1 °F 21.2 °F 69% 29.82 in 10.0 mi WNW 21.9 mph 32.2 mph N/A   Scattered Clouds
1:35 AM 30.2 °F 17.1 °F 21.2 °F 69% 29.83 in 10.0 mi WNW 21.9 mph 29.9 mph N/A   Scattered Clouds
1:55 AM 30.2 °F 18.5 °F 21.2 °F 69% 29.84 in 10.0 mi WNW 17.3 mph 26.5 mph N/A   Scattered Clouds
2:15 AM 30.2 °F 17.8 °F 21.2 °F 69% 29.85 in 10.0 mi WNW 19.6 mph 25.3 mph N/A   Clear
2:35 AM 30.2 °F 18.1 °F 21.2 °F 69% 29.87 in 10.0 mi WNW 18.4 mph 28.8 mph N/A   Scattered Clouds
2:55 AM 32.0 °F 22.1 °F 21.2 °F 64% 29.87 in 10.0 mi WNW 13.8 mph 24.2 mph N/A   Mostly Cloudy
3:15 AM 32.0 °F 21.2 °F 24.8 °F 75% 29.88 in 10.0 mi West 16.1 mph 23.0 mph N/A   Overcast
3:35 AM 32.0 °F 18.4 °F 23.0 °F 69% 29.88 in 10.0 mi WNW 26.5 mph 33.4 mph N/A   Overcast
3:55 AM 30.2 °F 16.5 °F 21.2 °F 69% 29.89 in 10.0 mi NW 24.2 mph 29.9 mph N/A   Scattered Clouds
4:15 AM 30.2 °F 17.1 °F 21.2 °F 69% 29.91 in 10.0 mi NW 21.9 mph 27.6 mph N/A   Clear
4:35 AM 30.2 °F 20.2 °F 21.2 °F 69% 29.92 in 10.0 mi WNW 12.7 mph 27.6 mph N/A   Clear
4:55 AM 30.2 °F 20.8 °F 21.2 °F 69% 29.93 in 10.0 mi WNW 11.5 mph 25.3 mph N/A   Scattered Clouds
5:15 AM 30.2 °F 20.2 °F 21.2 °F 69% 29.95 in 10.0 mi WNW 12.7 mph 23.0 mph N/A   Scattered Clouds
5:55 AM 30.2 °F 19.3 °F 19.4 °F 64% 29.97 in 10.0 mi WNW 15.0 mph 25.3 mph N/A   Scattered Clouds
6:15 AM 30.2 °F 20.8 °F 21.2 °F 69% 29.98 in 10.0 mi WNW 11.5 mph - N/A   Mostly Cloudy
6:35 AM 30.2 °F 18.1 °F 21.2 °F 69% 29.98 in 10.0 mi WNW 18.4 mph 24.2 mph N/A   Mostly Cloudy
6:55 AM 28.4 °F 16.6 °F 19.4 °F 69% 30.00 in 10.0 mi WNW 16.1 mph 21.9 mph N/A   Scattered Clouds
7:15 AM 28.4 °F 17.5 °F 21.2 °F 74% 30.01 in 10.0 mi WNW 13.8 mph 17.3 mph N/A   Scattered Clouds
7:35 AM 28.4 °F 17.0 °F 21.2 °F 74% 30.02 in 10.0 mi WNW 15.0 mph 25.3 mph N/A   Mostly Cloudy
7:55 AM 30.2 °F 19.8 °F 21.2 °F 69% 30.03 in 10.0 mi WNW 13.8 mph 24.2 mph N/A   Overcast
8:15 AM 30.2 °F 21.3 °F 21.2 °F 69% 30.04 in 10.0 mi WNW 10.4 mph - N/A   Overcast
8:35 AM 30.2 °F 20.2 °F 21.2 °F 69% 30.05 in 10.0 mi WNW 12.7 mph 20.7 mph N/A   Overcast
8:55 AM 30.2 °F 20.8 °F 21.2 °F 69% 30.06 in 10.0 mi WNW 11.5 mph 23.0 mph N/A   Overcast
9:15 AM 30.2 °F 17.8 °F 21.2 °F 69% 30.06 in 10.0 mi WNW 19.6 mph 23.0 mph N/A   Overcast
9:35 AM 32.0 °F 20.8 °F 21.2 °F 64% 30.07 in 10.0 mi NW 17.3 mph 25.3 mph N/A   Overcast
9:55 AM 33.8 °F 24.8 °F 21.2 °F 60% 30.08 in 10.0 mi NW 12.7 mph - N/A   Mostly Cloudy
10:15 AM 32.0 °F 22.5 °F 21.2 °F 64% 30.08 in 10.0 mi NW 12.7 mph - N/A   Overcast
10:35 AM 33.8 °F 23.2 °F 21.2 °F 60% 30.09 in 10.0 mi WNW 17.3 mph - N/A   Mostly Cloudy
10:55 AM 33.8 °F 23.2 °F 21.2 °F 60% 30.09 in 10.0 mi West 17.3 mph - N/A   Mostly Cloudy
11:15 AM 33.8 °F 23.9 °F 23.0 °F 65% 30.10 in 10.0 mi West 15.0 mph 19.6 mph N/A   Overcast
11:35 AM 35.6 °F 26.6 °F 23.0 °F 60% 30.10 in 10.0 mi WNW 13.8 mph 18.4 mph N/A   Overcast
11:55 AM 35.6 °F 26.2 °F 24.8 °F 65% 30.10 in 10.0 mi WNW 15.0 mph 19.6 mph N/A   Mostly Cloudy
12:15 PM 37.4 °F 29.3 °F 24.8 °F 60% 30.10 in 10.0 mi WNW 12.7 mph 19.6 mph N/A   Mostly Cloudy
12:35 PM 35.6 °F 26.6 °F 23.0 °F 60% 30.10 in 10.0 mi WNW 13.8 mph 18.4 mph N/A   Mostly Cloudy
12:55 PM 35.6 °F 27.5 °F 23.0 °F 60% 30.10 in 10.0 mi West 11.5 mph - N/A   Scattered Clouds
1:15 PM 37.4 °F 28.9 °F 24.8 °F 60% 30.10 in 10.0 mi West 13.8 mph 18.4 mph N/A   Scattered Clouds
1:35 PM 37.4 °F 29.3 °F 24.8 °F 60% 30.10 in 10.0 mi WNW 12.7 mph - N/A   Scattered Clouds
1:55 PM 37.4 °F 28.9 °F 24.8 °F 60% 30.10 in 10.0 mi WNW 13.8 mph 18.4 mph N/A   Scattered Clouds
2:15 PM 39.2 °F 30.8 °F 24.8 °F 56% 30.10 in 10.0 mi West 15.0 mph - N/A   Mostly Cloudy
2:35 PM 39.2 °F 31.6 °F 24.8 °F 56% 30.09 in 10.0 mi WNW 12.7 mph 18.4 mph N/A   Scattered Clouds
2:55 PM 39.2 °F 31.6 °F 24.8 °F 56% 30.09 in 10.0 mi WNW 12.7 mph 20.7 mph N/A   Mostly Cloudy
3:15 PM 39.2 °F 32.5 °F 24.8 °F 56% 30.09 in 10.0 mi WNW 10.4 mph - N/A   Mostly Cloudy
3:35 PM 37.4 °F 29.8 °F 24.8 °F 60% 30.09 in 10.0 mi WNW 11.5 mph 19.6 mph N/A   Scattered Clouds
3:55 PM 37.4 °F 29.3 °F 24.8 °F 60% 30.10 in 10.0 mi WNW 12.7 mph - N/A   Clear
4:55 PM 35.6 °F 28.6 °F 24.8 °F 65% 30.11 in 10.0 mi WNW 9.2 mph - N/A   Scattered Clouds
5:15 PM 35.6 °F 28.6 °F 24.8 °F 65% 30.11 in 10.0 mi NW 9.2 mph - N/A   Scattered Clouds
5:35 PM 33.8 °F 27.0 °F 23.0 °F 65% 30.10 in 10.0 mi NW 8.1 mph - N/A   Clear
5:55 PM 33.8 °F 27.7 °F 23.0 °F 65% 30.11 in 10.0 mi NNW 6.9 mph - N/A   Clear
6:15 PM 32.0 °F 26.4 °F 23.0 °F 69% 30.11 in 10.0 mi NNW 5.8 mph - N/A   Clear
6:35 PM 30.2 °F 26.7 °F 24.8 °F 80% 30.12 in 10.0 mi North 3.5 mph - N/A   Clear
6:55 PM 30.2 °F 24.3 °F 23.0 °F 75% 30.13 in 10.0 mi NNW 5.8 mph - N/A   Clear
7:15 PM 30.2 °F 24.3 °F 23.0 °F 75% 30.13 in 10.0 mi NNW 5.8 mph - N/A   Clear
7:35 PM 28.4 °F 24.6 °F 21.2 °F 74% 30.13 in 10.0 mi North 3.5 mph - N/A   Clear
7:55 PM 28.4 °F 22.2 °F 23.0 °F 80% 30.13 in 10.0 mi NNW 5.8 mph - N/A   Clear
8:15 PM 28.4 °F 22.2 °F 23.0 °F 80% 30.13 in 10.0 mi NNW 5.8 mph - N/A   Clear
8:35 PM 28.4 °F 23.3 °F 21.2 °F 74% 30.13 in 10.0 mi NNW 4.6 mph - N/A   Clear
8:55 PM 28.4 °F 24.6 °F 21.2 °F 74% 30.13 in 10.0 mi NNW 3.5 mph - N/A   Clear
9:15 PM 26.6 °F - 21.2 °F 80% 30.13 in 10.0 mi Calm Calm - N/A   Clear
9:35 PM 26.6 °F - 21.2 °F 80% 30.13 in 10.0 mi Calm Calm - N/A   Clear
9:55 PM 26.6 °F - 21.2 °F 80% 30.14 in 10.0 mi Calm Calm - N/A   Clear
10:15 PM 24.8 °F - 21.2 °F 86% 30.14 in 10.0 mi Calm Calm - N/A   Clear
10:35 PM 24.8 °F - 19.4 °F 80% 30.15 in 10.0 mi Calm Calm - N/A   Clear
10:55 PM 24.8 °F 20.5 °F 19.4 °F 80% 30.15 in 10.0 mi WNW 3.5 mph - N/A   Clear
11:15 PM 24.8 °F 20.5 °F 19.4 °F 80% 30.15 in 10.0 mi West 3.5 mph - N/A   Clear
11:35 PM 24.8 °F 20.5 °F 19.4 °F 80% 30.16 in 10.0 mi WSW 3.5 mph - N/A   Clear
11:55 PM 24.8 °F - 19.4 °F 80% 30.17 in 10.0 mi Calm Calm - N/A   Clear